Time,TemperatureF,DewpointF,PressureIn,WindDirection,WindDirectionDegrees,WindSpeedMPH,WindSpeedGustMPH,Humidity,HourlyPrecipIn,Conditions,Clouds,dailyrainin,SoftwareType,DateUTC
2014-01-09 00:17:00,23.1,21.0,30.55,ENE,67,0.0,0.0,92,0.00,,,0.00,weatherlink.com 1.10,2014-01-09 05:17:00,
2014-01-09 00:35:00,23.1,21.0,30.55,ENE,67,0.0,0.0,92,0.00,,,0.00,weatherlink.com 1.10,2014-01-09 05:35:00,
2014-01-09 00:55:00,23.0,21.0,30.54,ENE,67,0.0,0.0,92,0.00,,,0.00,weatherlink.com 1.10,2014-01-09 05:55:00,
2014-01-09 01:13:00,23.0,21.0,30.55,ENE,67,0.0,0.0,92,0.00,,,0.00,weatherlink.com 1.10,2014-01-09 06:13:00,
2014-01-09 01:31:00,22.7,21.0,30.56,ENE,67,0.0,0.0,93,0.00,,,0.00,weatherlink.com 1.10,2014-01-09 06:31:00,
2014-01-09 01:51:00,22.5,21.0,30.56,ENE,67,0.0,0.0,93,0.00,,,0.00,weatherlink.com 1.10,2014-01-09 06:51:00,
2014-01-09 02:09:00,22.3,21.0,30.57,ENE,67,0.0,0.0,93,0.00,,,0.00,weatherlink.com 1.10,2014-01-09 07:09:00,
2014-01-09 02:27:00,22.5,21.0,30.58,ENE,67,0.0,0.0,93,0.00,,,0.00,weatherlink.com 1.10,2014-01-09 07:27:00,
2014-01-09 02:47:00,22.5,21.0,30.58,ENE,67,0.0,1.0,93,0.00,,,0.00,weatherlink.com 1.10,2014-01-09 07:47:00,
2014-01-09 03:05:00,22.5,21.0,30.59,SSE,147,0.0,2.0,93,0.00,,,0.00,weatherlink.com 1.10,2014-01-09 08:05:00,
2014-01-09 03:23:00,22.3,20.0,30.59,SSE,166,0.0,0.0,92,0.00,,,0.00,weatherlink.com 1.10,2014-01-09 08:23:00,
2014-01-09 03:41:00,22.1,20.0,30.59,SSE,167,0.0,0.0,92,0.00,,,0.00,weatherlink.com 1.10,2014-01-09 08:41:00,
2014-01-09 04:01:00,21.9,20.0,30.59,SSE,166,0.0,0.0,92,0.00,,,0.00,weatherlink.com 1.10,2014-01-09 09:01:00,
2014-01-09 04:19:00,21.8,20.0,30.58,SSE,166,0.0,0.0,92,0.00,,,0.00,weatherlink.com 1.10,2014-01-09 09:19:00,
2014-01-09 04:37:00,21.6,20.0,30.58,SSE,166,0.0,0.0,92,0.00,,,0.00,weatherlink.com 1.10,2014-01-09 09:37:00,
2014-01-09 04:57:00,21.4,20.0,30.59,SSE,166,0.0,0.0,92,0.00,,,0.00,weatherlink.com 1.10,2014-01-09 09:57:00,
2014-01-09 05:15:00,21.1,19.0,30.59,SSE,166,0.0,0.0,92,0.00,,,0.00,weatherlink.com 1.10,2014-01-09 10:15:00,
2014-01-09 05:33:00,21.0,19.0,30.60,SSE,166,0.0,0.0,93,0.00,,,0.00,weatherlink.com 1.10,2014-01-09 10:33:00,
2014-01-09 05:53:00,20.8,19.0,30.60,SSE,166,0.0,0.0,93,0.00,,,0.00,weatherlink.com 1.10,2014-01-09 10:53:00,
2014-01-09 06:11:00,20.5,19.0,30.60,SSE,166,0.0,0.0,93,0.00,,,0.00,weatherlink.com 1.10,2014-01-09 11:11:00,
2014-01-09 06:29:00,20.3,19.0,30.61,SSE,167,0.0,0.0,93,0.00,,,0.00,weatherlink.com 1.10,2014-01-09 11:29:00,
2014-01-09 06:47:00,20.4,19.0,30.61,SSE,166,0.0,0.0,93,0.00,,,0.00,weatherlink.com 1.10,2014-01-09 11:47:00,
2014-01-09 07:06:00,20.2,19.0,30.61,SSE,166,0.0,0.0,93,0.00,,,0.00,weatherlink.com 1.10,2014-01-09 12:06:00,
2014-01-09 07:24:00,19.7,18.0,30.62,SSE,166,0.0,0.0,93,0.00,,,0.00,weatherlink.com 1.10,2014-01-09 12:24:00,
2014-01-09 07:44:00,18.6,17.0,30.62,SSE,166,0.0,0.0,93,0.00,,,0.00,weatherlink.com 1.10,2014-01-09 12:44:00,
2014-01-09 08:02:00,18.1,16.0,30.63,SSE,167,0.0,0.0,93,0.00,,,0.00,weatherlink.com 1.10,2014-01-09 13:02:00,
2014-01-09 08:20:00,17.9,17.0,30.64,SSE,166,0.0,0.0,94,0.00,,,0.00,weatherlink.com 1.10,2014-01-09 13:20:00,
2014-01-09 08:40:00,18.1,17.0,30.65,SSE,166,0.0,0.0,94,0.00,,,0.00,weatherlink.com 1.10,2014-01-09 13:40:00,
2014-01-09 08:58:00,19.0,18.0,30.65,SSE,166,0.0,0.0,94,0.00,,,0.00,weatherlink.com 1.10,2014-01-09 13:58:00,
2014-01-09 09:16:00,20.6,19.0,30.65,SSE,166,0.0,0.0,95,0.00,,,0.00,weatherlink.com 1.10,2014-01-09 14:16:00,
2014-01-09 09:34:00,21.8,20.0,30.65,NW,307,0.0,1.0,94,0.00,,,0.00,weatherlink.com 1.10,2014-01-09 14:34:00,
2014-01-09 09:54:00,22.2,20.0,30.65,WSW,239,0.0,3.0,91,0.00,,,0.00,weatherlink.com 1.10,2014-01-09 14:54:00,
2014-01-09 10:12:00,22.3,20.0,30.66,SW,215,0.0,2.0,90,0.00,,,0.00,weatherlink.com 1.10,2014-01-09 15:12:00,
2014-01-09 10:30:00,22.3,20.0,30.65,SW,224,2.0,2.0,89,0.00,,,0.00,weatherlink.com 1.10,2014-01-09 15:30:00,
2014-01-09 10:50:00,23.1,20.0,30.64,WSW,248,0.0,3.0,88,0.00,,,0.00,weatherlink.com 1.10,2014-01-09 15:50:00,
2014-01-09 11:08:00,23.9,20.0,30.63,WSW,246,1.0,4.0,85,0.00,,,0.00,weatherlink.com 1.10,2014-01-09 16:08:00,
2014-01-09 11:26:00,24.6,20.0,30.61,SW,219,2.0,4.0,84,0.00,,,0.00,weatherlink.com 1.10,2014-01-09 16:26:00,
2014-01-09 11:46:00,25.8,21.0,30.60,SSW,196,1.0,4.0,82,0.00,,,0.00,weatherlink.com 1.10,2014-01-09 16:46:00,
2014-01-09 12:04:00,26.8,21.0,30.59,SW,227,1.0,4.0,80,0.00,,,0.00,weatherlink.com 1.10,2014-01-09 17:04:00,
2014-01-09 12:22:00,28.0,22.0,30.58,WSW,243,2.0,4.0,78,0.00,,,0.00,weatherlink.com 1.10,2014-01-09 17:22:00,
2014-01-09 13:00:00,30.3,23.0,30.56,SSW,210,1.0,3.0,74,0.00,,,0.00,weatherlink.com 1.10,2014-01-09 18:00:00,
2014-01-09 13:18:00,31.1,23.0,30.55,SSW,211,0.0,2.0,73,0.00,,,0.00,weatherlink.com 1.10,2014-01-09 18:18:00,
2014-01-09 13:36:00,32.5,24.0,30.55,SSW,211,0.0,1.0,70,0.00,,,0.00,weatherlink.com 1.10,2014-01-09 18:36:00,
2014-01-09 13:56:00,34.2,25.0,30.54,South,187,1.0,2.0,68,0.01,,,0.01,weatherlink.com 1.10,2014-01-09 18:56:00,
2014-01-09 14:14:00,34.1,25.0,30.53,WSW,239,1.0,3.0,68,0.01,,,0.01,weatherlink.com 1.10,2014-01-09 19:14:00,
2014-01-09 14:32:00,33.8,24.0,30.52,SW,221,3.0,4.0,68,0.02,,,0.02,weatherlink.com 1.10,2014-01-09 19:32:00,
2014-01-09 16:42:00,32.6,24.0,30.51,South,181,0.0,0.0,72,0.00,,,0.02,weatherlink.com 1.10,2014-01-09 21:42:00,
2014-01-09 17:00:00,32.2,25.0,30.50,South,181,0.0,0.0,74,0.00,,,0.02,weatherlink.com 1.10,2014-01-09 22:00:00,
2014-01-09 17:20:00,31.7,24.0,30.51,South,182,0.0,0.0,74,0.00,,,0.02,weatherlink.com 1.10,2014-01-09 22:20:00,
2014-01-09 18:34:00,30.3,25.0,30.48,SE,142,0.0,2.0,80,0.00,,,0.02,weatherlink.com 1.10,2014-01-09 23:34:00,
2014-01-09 19:28:00,33.6,24.0,30.48,NW,320,4.0,4.0,69,0.00,,,0.02,weatherlink.com 1.10,2014-01-10 00:28:00,
2014-01-09 19:48:00,34.4,24.0,30.48,WNW,287,1.0,3.0,65,0.00,,,0.02,weatherlink.com 1.10,2014-01-10 00:48:00,
2014-01-09 20:06:00,34.7,24.0,30.48,NNW,331,0.0,7.0,64,0.00,,,0.02,weatherlink.com 1.10,2014-01-10 01:06:00,
2014-01-09 20:24:00,34.9,23.0,30.48,NE,49,0.0,5.0,62,0.00,,,0.02,weatherlink.com 1.10,2014-01-10 01:24:00,
2014-01-09 20:44:00,35.0,23.0,30.48,NE,43,0.0,11.0,62,0.00,,,0.02,weatherlink.com 1.10,2014-01-10 01:44:00,
2014-01-09 21:02:00,35.0,23.0,30.47,NE,54,1.0,4.0,61,0.00,,,0.02,weatherlink.com 1.10,2014-01-10 02:02:00,
2014-01-09 21:20:00,35.2,23.0,30.45,NW,314,3.0,4.0,61,0.00,,,0.02,weatherlink.com 1.10,2014-01-10 02:20:00,
2014-01-09 21:38:00,35.2,23.0,30.44,West,280,1.0,4.0,62,0.00,,,0.02,weatherlink.com 1.10,2014-01-10 02:38:00,
2014-01-09 21:58:00,35.1,23.0,30.43,North,354,4.0,14.0,61,0.00,,,0.02,weatherlink.com 1.10,2014-01-10 02:58:00,
2014-01-09 22:16:00,35.2,22.0,30.42,WNW,284,5.0,13.0,60,0.00,,,0.02,weatherlink.com 1.10,2014-01-10 03:16:00,
2014-01-09 22:34:00,35.2,22.0,30.42,NNW,332,4.0,12.0,60,0.00,,,0.02,weatherlink.com 1.10,2014-01-10 03:34:00,
2014-01-09 22:52:00,35.6,22.0,30.42,NNE,25,4.0,11.0,59,0.00,,,0.02,weatherlink.com 1.10,2014-01-10 03:52:00,
2014-01-09 23:11:00,35.7,22.0,30.44,NW,318,2.0,11.0,59,0.00,,,0.02,weatherlink.com 1.10,2014-01-10 04:11:00,
2014-01-09 23:31:00,35.3,23.0,30.46,NE,43,4.0,10.0,61,0.00,,,0.02,weatherlink.com 1.10,2014-01-10 04:31:00,
2014-01-09 23:48:00,34.4,29.0,30.45,ENE,67,1.0,5.0,80,0.00,,,0.02,weatherlink.com 1.10,2014-01-10 04:48:00,